Location: Noordwijk
(52.2400°N, 4.4500°E)
Time: 03:56:22
(UTC+00:00)

PCSat - Pass Details

Date: 07 December 2022
Orbit: 785 x 793 km, 67.1° (Epoch: 08 February)

Event Time Altitude Azimuth Distance (km) Brightness Sun altitude
Rises 18:01:55 0° 197° (SSW) 3,267 13.1 -22.0°
Reaches altitude 10° 18:04:22 10° 192° (SSW) 2,343 12.2 -22.3°
Enters shadow 18:09:25 49° 123° (ESE) 1,014 9.8 -23.1°
